星链-1200 (STARLINK-1200 )

导读

STARLINK-1200是美国太空探索技术公司(SpaceX)星链星座的卫星,于2020年2月17日发射升空。作为星链低轨卫星互联网星座的组成部分,它依托相控阵天线技术提供全球覆盖的高速宽带服务,面向个人及行业用户提供互联网接入。星链星座目前已发展为全球规模最大的低轨卫星星座,STARLINK-1200也为星链实现全球无缝网络覆盖贡献了部署力量。

Basic Information
目录编号:
45181
目录名称:
STARLINK-1200
国际标识:
2020-012D
轨道中心:
EARTH
卫星名称:
星链-1200
卫星全名:
星链-1200 (STARLINK-1200 )
卫星状态:
已陨落 最后检测时间 2025-09-11
发射日期:
2020-02-17 UTC
国别 :
美国 (US)
星等 :
--
Orbit Information
数据来源 国际轨道数据
星历时间: 2025-09-11T07:50:25+0800
轨道信息已过期275天
半长轴: 6524.487km
偏心率: 0.0006413
轨道倾角: 53.031°
近地点辐角 281.148°
升交点赤经 80.055°
平近点角 78.885°
近地点: 142.167km
远地点: 150.537km
周期: 87.414分钟
每日圈数: 16.4734
Detailed Information
固有亮度:
5
最大亮度:
2.5
卫星平台:
Starlink V1.0
覆盖范围:
全球
运营商:
太空探索技术公司
运营商所在国:
美国
制造商(研发单位):
太空探索技术公司
制造商所在国:
美国
使用方式:
暂无
Satellite Introduction
星链(Starlink)计划是由太空探索技术公司(SpaceX)提出的一个巨型低轨卫星互联网星座项目,计划在2019年至2024年间在太空搭建由约1.2万颗卫星组成的“星链”网络,其中1584颗将部署在地球上空550千米处的近地轨道,并从2020年开始工作。该卫星仍在工作。